[[{"header":{"parameterUnit":"m.s-1","parameterCategory":1,"la1":30.2991,"la2":30.254,"lo1":-89.0895,"lo2":-89.0444,"dy":0.0017,"dx":0.0017,"nx":28,"ny":28,"refTime":"2025-07-08T21:00:00:Z","depth":0,"parameterNumber":2,"parameterNumberName":"U-component_of_WINDS"},"data":[0,0,0,0,0,0,0,0,0,0,0,0,0,0,0,0,0,0,0,0,0,0,0,0,0,0,0,0,0,0,0,0,0,0,0,0,0,0,0,0,0,0,0,0,0,0,0,0,0,0,0,0,0,0,0,0,0,0,3.2256,3.2258,0,3.2386,3.2388,3.2389,3.2396,3.2395,3.2393,3.2392,3.2526,3.2531,3.2535,0,0,0,0,0,0,0,0,0,0,0,0,0,3.2014,3.2019,3.2256,3.2258,3.2259,3.2386,3.2388,3.2389,3.2396,3.2394,3.2393,3.2391,3.2524,3.253,3.2536,0,0,0,0,0,0,0,0,0,0,0,0,0,3.2129,3.202,3.2256,3.2278,3.2281,3.2386,3.2388,3.239,3.2397,3.2394,3.2392,3.239,3.2522,3.2529,3.2537,3.2628,0,0,3.256,3.2563,0,0,0,0,0,0,0,0,3.2123,3.2138,3.2273,3.2277,3.2281,3.2373,3.2352,3.247,3.2397,3.2353,3.2392,3.2389,3.2477,3.2488,3.2517,3.2634,3.264,3.256,3.2565,3.2568,3.257,0,0,0,0,0,0,0,3.2115,3.2133,3.2308,3.2275,3.228,3.2282,3.2295,3.2374,3.2426,3.2357,3.2357,3.2373,3.2478,3.251,3.252,3.2642,3.256,3.2567,3.2571,3.2574,3.2839,3.2841,0,0,0,0,0,0,3.2102,3.2126,3.2303,3.2311,3.2194,3.2288,3.2303,3.2345,3.2425,3.2435,3.2374,3.2372,3.2498,3.2512,3.2525,3.2636,3.2568,3.2575,3.2579,3.2837,3.284,3.2842,0,0,0,0,0,0,3.2097,3.2118,3.2298,3.2219,3.2242,3.2294,3.2342,3.2349,3.2381,3.2439,3.2448,3.2397,3.2497,3.2515,3.2602,3.264,3.2578,3.2585,3.2833,3.2837,3.2841,3.2859,0,0,0,0,0,0,3.209,3.2116,3.2151,3.222,3.2246,3.2373,3.2344,3.2353,3.2393,3.2392,3.2462,3.2472,3.2497,3.2591,3.2609,3.265,3.2591,3.283,3.2835,3.284,3.2855,3.2862,3.2869,0,0,0,0,0,3.2082,3.2152,3.2153,3.2175,3.2291,3.2375,3.239,3.2417,3.2396,3.2432,3.2469,3.247,3.2634,3.26,3.2621,3.2664,3.2828,3.2834,3.2839,3.2851,3.2861,3.2869,0,0,0,0,0,0,3.2087,3.2161,3.2164,3.2258,3.231,3.2376,3.2422,3.2426,3.2486,3.2482,3.2513,3.2529,3.2615,3.2649,3.2609,3.2756,3.2728,3.2739,3.273,3.274,3.2747,3.2736,3.2597,0,0,0,0,0,3.2099,3.2161,3.2223,3.23,3.2326,3.2369,3.2407,3.2423,3.2478,3.2501,3.2544,3.2598,3.2662,3.2703,3.2765,3.286,3.2875,3.29,3.2907,3.2913,3.2921,3.2972,3.2984,3.2861,3.2861,3.2861,0,0,3.2125,3.2173,3.2211,3.2302,3.2345,3.2407,3.2388,3.2456,3.2503,3.2511,3.2596,3.2629,3.2692,3.2783,3.2825,3.2813,3.2958,3.292,3.2924,3.2929,3.2979,3.2991,3.3001,3.2865,3.2864,3.2864,0,0,3.2204,3.2247,3.2316,3.2358,3.2422,3.2451,3.2467,3.2532,3.2555,3.264,3.2647,3.2704,3.2813,3.2857,3.2893,3.2988,3.299,3.3007,3.3044,3.3094,3.3103,3.3112,3.3144,3.3156,3.3015,3.3015,3.3015,0,3.2228,3.2323,3.235,3.2418,3.2457,3.2467,3.2536,3.2577,3.2658,3.2685,3.267,3.2807,3.2849,3.295,3.2973,3.3003,3.3022,3.2999,3.31,3.3109,3.3117,3.3148,3.316,3.3017,3.3017,3.3016,3.3016,0,3.2349,3.2415,3.2462,3.2539,3.2584,3.2653,3.269,3.2732,3.2744,3.2774,3.286,3.2912,3.2983,3.3009,3.3022,3.3111,3.3102,3.3093,3.3066,3.313,3.3159,3.3172,3.3019,3.3018,3.3018,3.3018,0,0,3.2434,3.2525,3.2542,3.2576,3.2648,3.2699,3.2767,3.2837,3.2872,3.2928,3.2985,3.3077,3.3069,3.311,3.3128,3.3172,3.3241,3.3158,3.316,3.317,3.3341,3.3346,3.3359,3.3244,3.3246,3.3248,3.3335,0,3.252,3.2641,3.2667,3.2771,3.2831,3.2842,3.2901,3.2951,3.2981,3.3036,3.3069,3.3133,3.3119,3.3143,3.3187,3.3224,3.3276,3.3218,3.3296,3.3299,3.3279,3.3375,3.3381,3.346,3.3347,3.3349,3.3351,0,3.2636,3.2693,3.2803,3.2865,3.2891,3.2944,3.3009,3.3062,3.3119,3.3137,3.3183,3.3196,3.3267,3.3237,3.3335,3.3294,3.3328,3.3351,3.3355,3.3362,3.3327,3.3383,3.3487,3.3498,3.337,3.3368,3.3367,0,3.2685,3.279,3.2869,3.2898,3.2973,3.3009,3.3042,3.3097,3.3136,3.3194,3.3219,3.3284,3.332,3.337,3.3399,3.3376,3.3494,3.3467,3.351,3.3509,3.3534,3.3531,3.3642,3.3558,3.3558,3.3558,3.3558,0,3.2777,3.2843,3.2891,3.294,3.3014,3.3044,3.3117,3.315,3.3198,3.3252,3.3266,3.3317,3.3354,3.341,3.3435,3.3511,3.3527,3.3543,3.3548,3.3541,3.3539,3.3562,3.3557,3.3561,3.356,3.356,3.3559,0,3.2844,3.2879,3.2965,3.3029,3.3046,3.3098,3.3152,3.3199,3.3229,3.3298,3.3316,3.3363,3.3429,3.3464,3.3548,3.3564,3.3649,3.3652,3.3629,3.3631,3.3672,3.3666,3.38,3.3819,3.3724,3.3725,3.3725,0,3.2899,3.295,3.3019,3.3056,3.3089,3.315,3.319,3.3221,3.3262,3.333,3.3369,3.3436,3.3491,3.3597,3.3638,3.3702,3.3706,3.3748,3.3715,3.3706,3.3704,3.37,3.3704,3.3753,3.3754,3.3755,3.3756,0,3.2993,3.3007,3.3065,3.3128,3.3176,3.3227,3.3278,3.3308,3.3348,3.3393,3.3461,3.3504,3.3589,3.3655,3.3721,3.3755,3.3762,3.3766,3.3779,3.3771,3.3755,3.3762,3.3643,3.3762,3.3762,3.3761,3.3761,3.3761,3.3055,3.31,3.3155,3.3218,3.3259,3.3306,3.3353,3.3389,3.3446,3.3517,3.3532,3.3603,3.3658,3.3748,3.3783,3.3839,3.3831,3.385,3.3854,3.3858,3.3859,3.3747,3.3852,3.3852,3.3852,3.3851,3.3851,0,3.3148,3.3183,3.3241,3.3311,3.3361,3.3363,3.3419,3.346,3.3523,3.3573,3.3627,3.3704,3.3768,3.3814,3.3879,3.3915,3.3919,3.3931,3.3928,3.3935,3.3864,3.3845,3.3926,3.3926,3.3926,3.3926,3.3926,3.3926,3.3202,3.3278,3.3299,3.3395,3.3431,3.35,3.3532,3.3575,3.3615,3.3701,3.3754,3.3783,3.3832,3.39,3.3959,3.3971,3.3993,3.4004,3.4016,3.3948,3.394,3.3933,3.3915,3.4009,3.4009,3.4082,3.4082,3.4083]},{"header":{"parameterUnit":"m.s-1","parameterCategory":1,"la1":30.2991,"la2":30.254,"lo1":-89.0895,"lo2":-89.0444,"dy":0.0017,"dx":0.0017,"nx":28,"ny":28,"refTime":"2025-07-08T21:00:00:Z","depth":0,"parameterNumber":3,"parameterNumberName":"V-component_of_WINDS"},"data":[0,0,0,0,0,0,0,0,0,0,0,0,0,0,0,0,0,0,0,0,0,0,0,0,0,0,0,0,0,0,0,0,0,0,0,0,0,0,0,0,0,0,0,0,0,0,0,0,0,0,0,0,0,0,0,0,0,0,3.3706,3.3708,0,3.387,3.3871,3.3873,3.3895,3.3894,3.3892,3.3891,3.4057,3.4063,3.4069,0,0,0,0,0,0,0,0,0,0,0,0,0,3.3411,3.3417,3.3706,3.3708,3.371,3.3869,3.3871,3.3874,3.3896,3.3894,3.3892,3.389,3.4055,3.4062,3.4069,0,0,0,0,0,0,0,0,0,0,0,0,0,3.3553,3.3418,3.3706,3.374,3.3745,3.3869,3.3872,3.3874,3.3896,3.3894,3.3892,3.3889,3.4053,3.4062,3.407,3.417,0,0,3.4097,3.4101,0,0,0,0,0,0,0,0,3.3545,3.3564,3.3733,3.3738,3.3744,3.386,3.3829,3.3974,3.3897,3.3839,3.3891,3.3888,3.3993,3.4007,3.4043,3.4178,3.4185,3.4098,3.4103,3.4107,3.411,0,0,0,0,0,0,0,3.3535,3.3557,3.3771,3.3736,3.3742,3.3747,3.3765,3.3856,3.3927,3.3844,3.3846,3.3865,3.3996,3.4034,3.4047,3.4188,3.4098,3.4105,3.4111,3.4114,3.4411,3.4414,0,0,0,0,0,0,3.3519,3.3549,3.3766,3.3776,3.3637,3.3754,3.3774,3.3825,3.3926,3.3939,3.3866,3.3865,3.402,3.4036,3.4053,3.4175,3.4107,3.4115,3.412,3.4409,3.4412,3.4415,0,0,0,0,0,0,3.3513,3.3539,3.3759,3.3663,3.3691,3.3762,3.3819,3.3829,3.3868,3.3943,3.3956,3.3893,3.4019,3.404,3.4141,3.4181,3.4119,3.4127,3.4406,3.441,3.4413,3.4422,0,0,0,0,0,0,3.3504,3.3536,3.3576,3.3664,3.3696,3.3845,3.3821,3.3834,3.3883,3.3883,3.3971,3.3984,3.4019,3.4127,3.4149,3.4192,3.4134,3.4402,3.4407,3.4412,3.4418,3.4425,3.4432,0,0,0,0,0,3.3494,3.3572,3.3578,3.3604,3.3747,3.3847,3.3866,3.3905,3.3886,3.3926,3.3974,3.3981,3.4173,3.4137,3.4162,3.4208,3.44,3.4406,3.4412,3.4415,3.4424,3.4431,0,0,0,0,0,0,3.3487,3.3584,3.3592,3.37,3.3765,3.3851,3.3902,3.3914,3.3985,3.3982,3.4027,3.4047,3.4145,3.4187,3.4145,3.4309,3.4285,3.4296,3.4279,3.4288,3.4294,3.4282,3.4141,0,0,0,0,0,3.3498,3.3572,3.3652,3.3741,3.3773,3.3832,3.3877,3.3901,3.397,3.3998,3.4054,3.412,3.4195,3.4244,3.4317,3.4424,3.4443,3.4468,3.4474,3.448,3.4489,3.4546,3.4558,3.4434,3.4434,3.4434,0,0,3.3522,3.3584,3.3628,3.3741,3.3794,3.3868,3.3855,3.3935,3.399,3.401,3.4108,3.4151,3.4228,3.4331,3.4379,3.4369,3.4527,3.4487,3.4491,3.4497,3.4553,3.4565,3.4575,3.4438,3.4437,3.4437,0,0,3.3603,3.3658,3.3737,3.379,3.3871,3.3909,3.3928,3.4011,3.4041,3.4139,3.4155,3.4221,3.435,3.4404,3.4448,3.4547,3.4555,3.4569,3.4605,3.466,3.467,3.4679,3.4713,3.4725,3.4578,3.4578,3.4578,0,3.3622,3.3736,3.3776,3.3854,3.3903,3.3924,3.4003,3.4053,3.4153,3.4185,3.4172,3.4333,3.4387,3.4502,3.4526,3.4561,3.4583,3.456,3.4665,3.4675,3.4684,3.4716,3.4729,3.4579,3.4579,3.4579,3.4579,0,3.3755,3.3833,3.3886,3.3982,3.4037,3.4115,3.4166,3.4216,3.4235,3.4274,3.4373,3.4438,3.4524,3.4553,3.4573,3.4671,3.4661,3.4656,3.4632,3.4696,3.4727,3.474,3.4581,3.458,3.458,3.458,0,0,3.3837,3.3953,3.3972,3.4015,3.4104,3.4165,3.4243,3.4328,3.4369,3.4437,3.4503,3.461,3.4606,3.4656,3.4681,3.473,3.4802,3.4719,3.4721,3.4731,3.4912,3.4914,3.4929,3.4808,3.4811,3.4813,3.4905,0,3.3928,3.4069,3.4106,3.4226,3.4298,3.4318,3.4386,3.4447,3.4486,3.4551,3.4593,3.4668,3.4657,3.4687,3.4736,3.4783,3.4839,3.4777,3.4869,3.4872,3.4849,3.4945,3.4949,3.5033,3.4918,3.492,3.4921,0,3.4053,3.4123,3.425,3.4328,3.4359,3.442,3.4499,3.4562,3.4631,3.4656,3.471,3.4731,3.4812,3.4783,3.4895,3.4851,3.4891,3.4919,3.4923,3.4933,3.49,3.4957,3.5061,3.5073,3.4941,3.494,3.4938,0,3.4099,3.4225,3.4316,3.4352,3.4447,3.4488,3.453,3.4597,3.4644,3.4713,3.4744,3.4821,3.4863,3.4921,3.4961,3.4937,3.5069,3.5044,3.509,3.5089,3.5117,3.5115,3.5228,3.5144,3.5144,3.5143,3.5143,0,3.4196,3.4272,3.4338,3.4394,3.4479,3.4521,3.4604,3.4646,3.4705,3.4769,3.4791,3.485,3.4899,3.4965,3.4996,3.5083,3.5102,3.5123,3.513,3.5121,3.5118,3.5147,3.5142,3.5147,3.5146,3.5145,3.5145,0,3.4262,3.4309,3.441,3.449,3.4512,3.4571,3.464,3.4694,3.4732,3.4813,3.4834,3.4894,3.4972,3.5017,3.5116,3.5137,3.5233,3.5238,3.5209,3.5212,3.5256,3.525,3.5392,3.5412,3.5314,3.5315,3.5316,0,3.432,3.4379,3.4466,3.451,3.4551,3.4623,3.4671,3.4713,3.4762,3.4845,3.4889,3.4968,3.5034,3.5157,3.5209,3.5284,3.529,3.5335,3.5302,3.529,3.529,3.5285,3.5291,3.534,3.5341,3.5342,3.5342,0,3.4419,3.4439,3.4508,3.4584,3.4641,3.4704,3.4766,3.48,3.4853,3.4906,3.4986,3.5037,3.5137,3.5215,3.5294,3.5335,3.5347,3.5352,3.5366,3.5357,3.5338,3.5347,3.5224,3.5349,3.5348,3.5347,3.5347,3.5347,3.4482,3.4535,3.4603,3.4679,3.473,3.4787,3.4841,3.4886,3.4954,3.5039,3.5059,3.5143,3.5208,3.5316,3.5358,3.5423,3.5416,3.5437,3.5442,3.5447,3.5447,3.5327,3.5438,3.5438,3.5438,3.5438,3.5438,0,3.4581,3.4625,3.4694,3.478,3.4839,3.4845,3.4914,3.4962,3.5035,3.5096,3.516,3.5251,3.5326,3.5383,3.5459,3.55,3.5507,3.5519,3.5516,3.5525,3.545,3.543,3.5511,3.5511,3.5511,3.5511,3.5511,3.5511,3.4639,3.4728,3.4756,3.4869,3.4914,3.4996,3.5034,3.5086,3.5134,3.5235,3.5297,3.5334,3.5393,3.5473,3.5542,3.5557,3.5583,3.5593,3.5609,3.5538,3.553,3.5523,3.5503,3.5599,3.5599,3.5678,3.5678,3.5679]}]]